#timestamp,LO_Frequency,Hit,StdDev 
1615154415.9,286047000.9,N
1615154435.7,286046999.7,N
1615154455.5,286047002.8,N
1615154475.4,286047002.4,N
1615154495.2,286047004.4,N
1615154515.1,286047002.0,N
1615154516.0,286047002.0,N
1615154535.8,286047002.7,N
1615154555.6,286046999.7,N
1615154575.5,286047001.1,N
1615154595.3,286047000.7,N
1615154615.1,286047000.5,N
1615154635.9,286047000.6,N
1615154655.7,286047000.7,N
1615154675.6,286047000.7,N
1615154695.4,286046998.6,N
1615154715.2,286046998.5,N
1615154735.1,286046998.5,N
1615154736.0,286046998.5,N
1615154755.8,286047000.4,N
1615154775.6,286046999.9,N
1615154795.5,286047000.5,N
1615154815.3,286047002.8,N
1615154835.2,286046999.7,N
1615154855.9,286046999.7,N
1615154875.7,286047002.3,N
1615154895.6,286046999.8,N
1615154915.4,286047000.7,N
1615154935.2,286046998.4,N
1615154955.1,286047000.2,N
1615154956.0,286047000.2,N
1615154975.8,286047000.6,N
1615154995.7,286047002.4,N
1615155015.5,286047001.2,N
1615155035.3,286047001.1,N
1615155055.2,286047000.7,N
1615155075.0,286046999.8,N
1615155075.9,286046999.8,N
1615155095.7,286046999.7,N
1615155115.6,286047000.0,N
1615155135.4,286047000.2,N
1615155155.3,286047000.0,N
1615155175.1,286047004.1,Y
1615155176.0,286047004.1,P
1615155195.8,286047004.0,N
1615155215.7,286047001.4,N
1615155235.5,286047002.6,N
1615155255.3,286047000.1,N
1615155275.2,286047002.1,N
1615155295.0,286047002.0,N
1615155295.9,286047002.0,N
1615155315.8,286047004.4,Y
1615155335.6,286046998.3,P
1615155355.4,286047000.3,N
1615155375.3,286047001.0,N
1615155395.1,286047000.0,N
1615155415.8,286047002.6,N
1615155435.7,286046999.9,N
1615155455.5,286046998.2,N
1615155475.4,286046999.4,N
1615155495.2,286046999.5,N
1615155515.0,286046999.5,N
1615155515.9,286046999.5,N
1615155535.8,286046997.3,N
1615155555.6,286046999.3,N
1615155575.4,286046999.5,N
1615155595.3,286046996.6,N
1615155615.1,286046999.6,N
1615155635.9,286046999.3,N
1615155655.7,286046999.0,N
1615155675.5,286046998.1,N
1615155695.4,286046998.3,N
1615155715.2,286046998.5,N
1615155735.0,286047000.6,N
1615155735.9,286047000.6,N
1615155755.8,286047000.0,N
1615155775.6,286047002.8,N
1615155795.5,286047002.5,N
1615155815.3,286047001.9,N
1615155835.1,286047004.0,N
1615155855.9,286047004.2,N
1615155875.7,286047004.0,N
1615155895.5,286047003.4,N
1615155915.4,286047002.9,N
1615155935.2,286047005.7,N
1615155955.1,286047005.2,N
1615155956.0,286047005.2,N
1615155975.8,286047005.1,N
1615155995.6,286047007.0,N
1615156015.5,286047006.1,N
1615156035.3,286047008.5,N
1615156055.2,286047010.7,Y
1615156075.9,286047006.1,P
1615156095.7,286047007.1,P
1615156115.6,286047006.2,N
1615156135.4,286047006.1,N
1615156155.2,286047008.7,Y
1615156175.1,286047002.0,P
1615156176.0,286047002.0,N
1615156195.8,286047001.6,N
1615156215.7,286047001.5,N
1615156235.5,286047001.3,N
1615156255.3,286047004.3,N
1615156275.2,286047001.8,N
1615156295.0,286047003.4,N
1615156295.9,286047003.4,N
1615156315.7,286047003.5,N
1615156335.6,286047005.6,Y
1615156355.4,286047001.4,P
1615156375.3,286047001.4,N
1615156395.1,286047002.5,P
1615156396.0,286047002.5,Y
1615156415.8,286047001.0,P
1615156435.7,286047000.0,N
1615156455.5,286046999.9,N
1615156475.3,286047000.8,N
1615156495.2,286046998.4,N
1615156515.0,286046998.7,N
1615156515.9,286046998.7,N
1615156535.8,286046998.4,N
1615156555.6,286046998.6,N
1615156575.4,286047000.8,N
1615156595.3,286047000.8,N
1615156615.1,286046998.4,N
1615156635.8,286046998.8,N
1615156655.7,286046998.5,N
1615156675.5,286046998.5,N
1615156695.4,286046999.3,N
1615156715.2,286046998.9,N
1615156735.0,286046998.6,N
1615156735.9,286046998.6,N
1615156755.8,286046999.5,N
1615156775.6,286046996.8,Y
1615156795.4,286046998.5,P
1615156815.3,286046999.1,N
1615156835.1,286046997.2,P
1615156855.9,286046996.8,Y
1615156875.7,286047001.2,P
1615156895.5,286047000.7,N
1615156915.4,286047001.0,N
1615156935.2,286047000.4,N
1615156955.0,286047002.7,N
1615156955.9,286047002.7,N
1615156975.8,286047000.3,N
1615156995.6,286047002.3,N
1615157015.5,286047002.7,N
1615157035.3,286047002.1,N
1615157055.1,286047004.4,Y
1615157075.9,286047002.7,P
1615157095.7,286047002.2,P
1615157115.5,286047002.3,P
1615157135.4,286047002.2,Y
1615157155.2,286046998.9,P
1615157175.1,286046999.3,N
1615157176.0,286046999.3,N
1615157195.8,286046999.5,N
1615157215.6,286046996.8,N
1615157235.5,286046997.9,N
1615157255.3,286046995.1,Y
1615157275.2,286046995.6,P
1615157295.9,286046995.2,N
1615157315.7,286046997.8,N
1615157335.6,286046995.5,N
1615157355.4,286046993.4,Y
1615157375.2,286046996.6,P
1615157395.1,286046996.5,P
1615157396.0,286046996.5,P
1615157415.8,286046999.5,Y
1615157435.7,286046999.9,P
1615157455.5,286046998.2,N
1615157475.3,286047000.6,N
1615157495.2,286047001.0,N
1615157515.9,286046998.4,N
1615157535.7,286047000.8,N
1615157555.6,286046998.4,N
1615157575.4,286047001.0,N
1615157595.2,286047000.6,N
1615157615.1,286046998.5,N
1615157616.0,286046998.5,N
1615157635.8,286046999.5,N
1615157655.7,286046996.6,N
1615157675.5,286046995.1,Y
1615157695.3,286046995.6,P
1615157715.2,286046996.3,N
1615157735.0,286046996.2,N
1615157735.9,286046996.2,N
1615157755.8,286046993.7,Y
1615157775.6,286046999.5,P
1615157795.4,286046998.2,N
1615157815.3,286046998.2,N
1615157835.1,286046999.1,N
1615157855.8,286046996.9,Y
1615157875.7,286047000.7,P
1615157895.5,286047000.1,N
1615157915.4,286047001.1,N
1615157935.2,286046998.5,N
1615157955.0,286047000.8,N
1615157955.9,286047000.8,N
1615157975.8,286047001.0,N
1615157995.6,286047002.5,N
